Year,Month,Day,Hour,Minute,Value (Times are PST for temperature in C)
2017,06,12,00,00,13.80
2017,06,12,00,01,13.80
2017,06,12,00,02,13.80
2017,06,12,00,03,13.80
2017,06,12,00,04,13.70
2017,06,12,00,05,13.70
2017,06,12,00,06,13.70
2017,06,12,00,07,13.70
2017,06,12,00,08,13.70
2017,06,12,00,09,13.60
2017,06,12,00,10,13.60
2017,06,12,00,11,13.60
2017,06,12,00,12,13.50
2017,06,12,00,13,13.50
2017,06,12,00,14,13.40
2017,06,12,00,15,13.40
2017,06,12,00,16,13.40
2017,06,12,00,17,13.40
2017,06,12,00,18,13.30
2017,06,12,00,19,13.30
2017,06,12,00,20,13.30
2017,06,12,00,21,13.20
2017,06,12,00,22,13.20
2017,06,12,00,23,13.20
2017,06,12,00,24,13.20
2017,06,12,00,25,13.10
2017,06,12,00,26,13.10
2017,06,12,00,27,13.00
2017,06,12,00,28,13.00
2017,06,12,00,29,13.00
2017,06,12,00,30,12.90
2017,06,12,00,31,12.90
2017,06,12,00,32,12.90
2017,06,12,00,33,12.80
2017,06,12,00,34,12.80
2017,06,12,00,35,12.80
2017,06,12,00,36,12.80
2017,06,12,00,37,12.70
2017,06,12,00,38,12.70
2017,06,12,00,39,12.70
2017,06,12,00,40,12.70
2017,06,12,00,41,12.70
2017,06,12,00,42,12.70
2017,06,12,00,43,12.70
2017,06,12,00,44,12.60
2017,06,12,00,45,12.60
2017,06,12,00,46,12.60
2017,06,12,00,47,12.60
2017,06,12,00,48,12.60
2017,06,12,00,49,12.50
2017,06,12,00,50,12.50
2017,06,12,00,51,12.50
2017,06,12,00,52,12.50
2017,06,12,00,53,12.40
2017,06,12,00,54,12.40
2017,06,12,00,55,12.40
2017,06,12,00,56,12.40
2017,06,12,00,57,12.40
2017,06,12,00,58,12.40
2017,06,12,00,59,12.40
2017,06,12,01,00,12.30
2017,06,12,01,01,12.30
2017,06,12,01,02,12.30
2017,06,12,01,03,12.30
2017,06,12,01,04,12.30
2017,06,12,01,05,12.30
2017,06,12,01,06,12.30
2017,06,12,01,07,12.30
2017,06,12,01,08,12.20
2017,06,12,01,09,12.20
2017,06,12,01,10,12.20
2017,06,12,01,11,12.20
2017,06,12,01,12,12.20
2017,06,12,01,13,12.20
2017,06,12,01,14,12.10
2017,06,12,01,15,12.10
2017,06,12,01,16,12.10
2017,06,12,01,17,12.10
2017,06,12,01,18,12.10
2017,06,12,01,19,12.00
2017,06,12,01,20,12.00
2017,06,12,01,21,12.00
2017,06,12,01,22,11.90
2017,06,12,01,23,11.90
2017,06,12,01,24,11.90
2017,06,12,01,25,11.90
2017,06,12,01,26,11.90
2017,06,12,01,27,11.80
2017,06,12,01,28,11.80
2017,06,12,01,29,11.80
2017,06,12,01,30,11.80
2017,06,12,01,31,11.80
2017,06,12,01,32,11.70
2017,06,12,01,33,11.70
2017,06,12,01,34,11.70
2017,06,12,01,35,11.70
2017,06,12,01,36,11.70
2017,06,12,01,37,11.60
2017,06,12,01,38,11.60
2017,06,12,01,39,11.60
2017,06,12,01,40,11.60
2017,06,12,01,41,11.60
2017,06,12,01,42,11.60
2017,06,12,01,43,11.60
2017,06,12,01,44,11.50
2017,06,12,01,45,11.50
2017,06,12,01,46,11.50
2017,06,12,01,47,11.40
2017,06,12,01,48,11.40
2017,06,12,01,49,11.40
2017,06,12,01,50,11.40
2017,06,12,01,51,11.30
2017,06,12,01,52,11.30
2017,06,12,01,53,11.30
2017,06,12,01,54,11.20
2017,06,12,01,55,11.20
2017,06,12,01,56,11.20
2017,06,12,01,57,11.10
2017,06,12,01,58,11.10
2017,06,12,01,59,11.10
2017,06,12,02,00,11.10
2017,06,12,02,01,11.10
2017,06,12,02,02,11.00
2017,06,12,02,03,11.00
2017,06,12,02,04,11.00
2017,06,12,02,05,11.00
2017,06,12,02,06,11.00
2017,06,12,02,07,10.90
2017,06,12,02,08,10.90
2017,06,12,02,09,10.90
2017,06,12,02,10,10.90
2017,06,12,02,11,10.90
2017,06,12,02,12,10.80
2017,06,12,02,13,10.80
2017,06,12,02,14,10.80
2017,06,12,02,15,10.80
2017,06,12,02,16,10.80
2017,06,12,02,17,10.80
2017,06,12,02,18,10.80
2017,06,12,02,19,10.70
2017,06,12,02,20,10.70
2017,06,12,02,21,10.70
2017,06,12,02,22,10.70
2017,06,12,02,23,10.70
2017,06,12,02,24,10.70
2017,06,12,02,25,10.70
2017,06,12,02,26,10.70
2017,06,12,02,27,10.70
2017,06,12,02,28,10.70
2017,06,12,02,29,10.70
2017,06,12,02,30,10.70
2017,06,12,02,31,10.70
2017,06,12,02,32,10.60
2017,06,12,02,33,10.60
2017,06,12,02,34,10.60
2017,06,12,02,35,10.60
2017,06,12,02,36,10.60
2017,06,12,02,37,10.60
2017,06,12,02,38,10.60
2017,06,12,02,39,10.60
2017,06,12,02,40,10.50
2017,06,12,02,41,10.50
2017,06,12,02,42,10.50
2017,06,12,02,43,10.50
2017,06,12,02,44,10.50
2017,06,12,02,45,10.50
2017,06,12,02,46,10.50
2017,06,12,02,47,10.50
2017,06,12,02,48,10.50
2017,06,12,02,49,10.40
2017,06,12,02,50,10.40
2017,06,12,02,51,10.40
2017,06,12,02,52,10.40
2017,06,12,02,53,10.30
2017,06,12,02,54,10.30
2017,06,12,02,55,10.30
2017,06,12,02,56,10.30
2017,06,12,02,57,10.30
2017,06,12,02,58,10.30
2017,06,12,02,59,10.20
2017,06,12,03,00,10.20
2017,06,12,03,01,10.20
2017,06,12,03,02,10.20
2017,06,12,03,03,10.20
2017,06,12,03,04,10.20
2017,06,12,03,05,10.10
2017,06,12,03,06,10.10
2017,06,12,03,07,10.10
2017,06,12,03,08,10.00
2017,06,12,03,09,10.00
2017,06,12,03,10,10.00
2017,06,12,03,11,10.00
2017,06,12,03,12,9.90
2017,06,12,03,13,9.90
2017,06,12,03,14,9.90
2017,06,12,03,15,9.90
2017,06,12,03,16,9.90
2017,06,12,03,17,9.90
2017,06,12,03,18,9.80
2017,06,12,03,19,9.80
2017,06,12,03,20,9.80
2017,06,12,03,21,9.80
2017,06,12,03,22,9.70
2017,06,12,03,23,9.70
2017,06,12,03,24,9.70
2017,06,12,03,25,9.70
2017,06,12,03,26,9.60
2017,06,12,03,27,9.60
2017,06,12,03,28,9.60
2017,06,12,03,29,9.60
2017,06,12,03,30,9.60
2017,06,12,03,31,9.60
2017,06,12,03,32,9.50
2017,06,12,03,33,9.50
2017,06,12,03,34,9.40
2017,06,12,03,35,9.40
2017,06,12,03,36,9.40
2017,06,12,03,37,9.40
2017,06,12,03,38,9.30
2017,06,12,03,39,9.30
2017,06,12,03,40,9.30
2017,06,12,03,41,9.20
2017,06,12,03,42,9.20
2017,06,12,03,43,9.20
2017,06,12,03,44,9.10
2017,06,12,03,45,9.10
2017,06,12,03,46,9.10
2017,06,12,03,47,9.10
2017,06,12,03,48,9.00
2017,06,12,03,49,9.00
2017,06,12,03,50,9.00
2017,06,12,03,51,9.00
2017,06,12,03,52,8.90
2017,06,12,03,53,8.90
2017,06,12,03,54,8.90
2017,06,12,03,55,8.90
2017,06,12,03,56,8.90
2017,06,12,03,57,8.90
2017,06,12,03,58,8.80
2017,06,12,03,59,8.80
2017,06,12,04,00,8.80
2017,06,12,04,01,8.80
2017,06,12,04,02,8.80
2017,06,12,04,03,8.80
2017,06,12,04,04,8.80
2017,06,12,04,05,8.80
2017,06,12,04,06,8.80
2017,06,12,04,07,8.80
2017,06,12,04,08,8.80
2017,06,12,04,09,8.80
2017,06,12,04,10,8.80
2017,06,12,04,11,8.80
2017,06,12,04,12,8.80
2017,06,12,04,13,8.80
2017,06,12,04,14,8.80
2017,06,12,04,15,8.80
2017,06,12,04,16,8.80
2017,06,12,04,17,8.80
2017,06,12,04,18,8.80
2017,06,12,04,19,8.80
2017,06,12,04,20,8.80
2017,06,12,04,21,8.70
2017,06,12,04,22,8.70
2017,06,12,04,23,8.70
2017,06,12,04,24,8.70
2017,06,12,04,25,8.70
2017,06,12,04,26,8.70
2017,06,12,04,27,8.60
2017,06,12,04,28,8.60
2017,06,12,04,29,8.60
2017,06,12,04,30,8.60
2017,06,12,04,31,8.50
2017,06,12,04,32,8.50
2017,06,12,04,33,8.40
2017,06,12,04,34,8.40
2017,06,12,04,35,8.40
2017,06,12,04,36,8.40
2017,06,12,04,37,8.30
2017,06,12,04,38,8.30
2017,06,12,04,39,8.30
2017,06,12,04,40,8.30
2017,06,12,04,41,8.20
2017,06,12,04,42,8.20
2017,06,12,04,43,8.20
2017,06,12,04,44,8.20
2017,06,12,04,45,8.10
2017,06,12,04,46,8.10
2017,06,12,04,47,8.10
2017,06,12,04,48,8.10
2017,06,12,04,49,8.00
2017,06,12,04,50,8.00
2017,06,12,04,51,8.00
2017,06,12,04,52,7.90
2017,06,12,04,53,7.90
2017,06,12,04,54,7.90
2017,06,12,04,55,7.80
2017,06,12,04,56,7.80
2017,06,12,04,57,7.80
2017,06,12,04,58,7.80
2017,06,12,04,59,7.70
2017,06,12,05,00,7.70
2017,06,12,05,01,7.70
2017,06,12,05,02,7.70
2017,06,12,05,03,7.60
2017,06,12,05,04,7.60
2017,06,12,05,05,7.60
2017,06,12,05,06,7.50
2017,06,12,05,07,7.50
2017,06,12,05,08,7.50
2017,06,12,05,09,7.40
2017,06,12,05,10,7.40
2017,06,12,05,11,7.40
2017,06,12,05,12,7.40
2017,06,12,05,13,7.40
2017,06,12,05,14,7.40
2017,06,12,05,15,7.40
2017,06,12,05,16,7.40
2017,06,12,05,17,7.40
2017,06,12,05,18,7.40
2017,06,12,05,19,7.50
2017,06,12,05,20,7.50
2017,06,12,05,21,7.60
2017,06,12,05,22,7.60
2017,06,12,05,23,7.70
2017,06,12,05,24,7.70
2017,06,12,05,25,7.80
2017,06,12,05,26,7.80
2017,06,12,05,27,7.90
2017,06,12,05,28,7.90
2017,06,12,05,29,7.90
2017,06,12,05,30,7.90
2017,06,12,05,31,7.90
2017,06,12,05,32,7.90
2017,06,12,05,33,7.90
2017,06,12,05,34,7.90
2017,06,12,05,35,7.90
2017,06,12,05,36,7.90
2017,06,12,05,37,7.90
2017,06,12,05,38,7.90
2017,06,12,05,39,7.90
2017,06,12,05,40,7.90
2017,06,12,05,41,7.90
2017,06,12,05,42,7.80
2017,06,12,05,43,7.80
2017,06,12,05,44,7.80
2017,06,12,05,45,7.80
2017,06,12,05,46,7.80
2017,06,12,05,47,7.80
2017,06,12,05,48,7.80
2017,06,12,05,49,7.80
2017,06,12,05,50,7.80
2017,06,12,05,51,7.70
2017,06,12,05,52,7.70
2017,06,12,05,53,7.70
2017,06,12,05,54,7.70
2017,06,12,05,55,7.60
2017,06,12,05,56,7.60
2017,06,12,05,57,7.60
2017,06,12,05,58,7.60
2017,06,12,05,59,7.50
2017,06,12,06,00,7.50
2017,06,12,06,01,7.40
2017,06,12,06,02,7.40
2017,06,12,06,03,7.40
2017,06,12,06,04,7.40
2017,06,12,06,05,7.30
2017,06,12,06,06,7.30
2017,06,12,06,07,7.30
2017,06,12,06,08,7.30
2017,06,12,06,09,7.30
2017,06,12,06,10,7.30
2017,06,12,06,11,7.30
2017,06,12,06,12,7.30
2017,06,12,06,13,7.30
2017,06,12,06,14,7.20
2017,06,12,06,15,7.20
2017,06,12,06,16,7.20
2017,06,12,06,17,7.20
2017,06,12,06,18,7.20
2017,06,12,06,19,7.20
2017,06,12,06,20,7.20
2017,06,12,06,21,7.20
2017,06,12,06,22,7.20
2017,06,12,06,23,7.20
2017,06,12,06,24,7.20
2017,06,12,06,25,7.20
2017,06,12,06,26,7.30
2017,06,12,06,27,7.20
2017,06,12,06,28,7.20
2017,06,12,06,29,7.20
2017,06,12,06,30,7.20
2017,06,12,06,31,7.20
2017,06,12,06,32,7.30
2017,06,12,06,33,7.30
2017,06,12,06,34,7.30
2017,06,12,06,35,7.30
2017,06,12,06,36,7.30
2017,06,12,06,37,7.30
2017,06,12,06,38,7.30
2017,06,12,06,39,7.40
2017,06,12,06,40,7.40
2017,06,12,06,41,7.40
2017,06,12,06,42,7.40
2017,06,12,06,43,7.50
2017,06,12,06,44,7.50
2017,06,12,06,45,7.60
2017,06,12,06,46,7.60
2017,06,12,06,47,7.60
2017,06,12,06,48,7.70
2017,06,12,06,49,7.70
2017,06,12,06,50,7.80
2017,06,12,06,51,7.90
2017,06,12,06,52,7.90
2017,06,12,06,53,8.00
2017,06,12,06,54,8.10
2017,06,12,06,55,8.10
2017,06,12,06,56,8.20
2017,06,12,06,57,8.20
2017,06,12,06,58,8.30
2017,06,12,06,59,8.40
2017,06,12,07,00,8.50
2017,06,12,07,01,8.50
2017,06,12,07,02,8.60
2017,06,12,07,03,8.70
2017,06,12,07,04,8.70
2017,06,12,07,05,8.80
2017,06,12,07,06,8.90
2017,06,12,07,07,8.90
2017,06,12,07,08,8.90
2017,06,12,07,09,9.00
2017,06,12,07,10,9.00
2017,06,12,07,11,9.10
2017,06,12,07,12,9.10
2017,06,12,07,13,9.20
2017,06,12,07,14,9.20
2017,06,12,07,15,9.30
2017,06,12,07,16,9.30
2017,06,12,07,17,9.40
2017,06,12,07,18,9.40
2017,06,12,07,19,9.40
2017,06,12,07,20,9.50
2017,06,12,07,21,9.50
2017,06,12,07,22,9.60
2017,06,12,07,23,9.60
2017,06,12,07,24,9.70
2017,06,12,07,25,9.80
2017,06,12,07,26,9.80
2017,06,12,07,27,9.80
2017,06,12,07,28,9.90
2017,06,12,07,29,9.90
2017,06,12,07,30,10.00
2017,06,12,07,31,10.00
2017,06,12,07,32,10.10
2017,06,12,07,33,10.10
2017,06,12,07,34,10.20
2017,06,12,07,35,10.20
2017,06,12,07,36,10.30
2017,06,12,07,37,10.40
2017,06,12,07,38,10.50
2017,06,12,07,39,10.60
2017,06,12,07,40,10.60
2017,06,12,07,41,10.70
2017,06,12,07,42,10.70
2017,06,12,07,43,10.80
2017,06,12,07,44,10.80
2017,06,12,07,45,10.80
2017,06,12,07,46,10.90
2017,06,12,07,47,11.00
2017,06,12,07,48,11.10
2017,06,12,07,49,11.20
2017,06,12,07,50,11.30
2017,06,12,07,51,11.30
2017,06,12,07,52,11.30
2017,06,12,07,53,11.30
2017,06,12,07,54,11.30
2017,06,12,07,55,11.40
2017,06,12,07,56,11.40
2017,06,12,07,57,11.40
2017,06,12,07,58,11.40
2017,06,12,07,59,11.40
2017,06,12,08,00,11.40
2017,06,12,08,01,11.40
2017,06,12,08,02,11.40
2017,06,12,08,03,11.40
2017,06,12,08,04,11.30
2017,06,12,08,05,11.30
2017,06,12,08,06,11.30
2017,06,12,08,07,11.30
2017,06,12,08,08,11.30
2017,06,12,08,09,11.30
2017,06,12,08,10,11.20
2017,06,12,08,11,11.20
2017,06,12,08,12,11.20
2017,06,12,08,13,11.20
2017,06,12,08,14,11.20
2017,06,12,08,15,11.10
2017,06,12,08,16,11.10
2017,06,12,08,17,11.00
2017,06,12,08,18,11.00
2017,06,12,08,19,11.00
2017,06,12,08,20,11.00
2017,06,12,08,21,11.10
2017,06,12,08,22,11.10
2017,06,12,08,23,11.10
2017,06,12,08,24,11.10
2017,06,12,08,25,11.20
2017,06,12,08,26,11.20
2017,06,12,08,27,11.20
2017,06,12,08,28,11.20
2017,06,12,08,29,11.20
2017,06,12,08,30,11.20
2017,06,12,08,31,11.20
2017,06,12,08,32,11.20
2017,06,12,08,33,11.20
2017,06,12,08,34,11.30
2017,06,12,08,35,11.30
2017,06,12,08,36,11.30
2017,06,12,08,37,11.30
2017,06,12,08,38,11.30
2017,06,12,08,39,11.40
2017,06,12,08,40,11.40
2017,06,12,08,41,11.40
2017,06,12,08,42,11.40
2017,06,12,08,43,11.40
2017,06,12,08,44,11.50
2017,06,12,08,45,11.50
2017,06,12,08,46,11.50
2017,06,12,08,47,11.50
2017,06,12,08,48,11.50
2017,06,12,08,49,11.60
2017,06,12,08,50,11.60
2017,06,12,08,51,11.60
2017,06,12,08,52,11.50
2017,06,12,08,53,11.50
2017,06,12,08,54,11.50
2017,06,12,08,55,11.50
2017,06,12,08,56,11.50
2017,06,12,08,57,11.60
2017,06,12,08,58,11.60
2017,06,12,08,59,11.70
2017,06,12,09,00,11.80
2017,06,12,09,01,11.80
2017,06,12,09,02,11.90
2017,06,12,09,03,11.90
2017,06,12,09,04,11.90
2017,06,12,09,05,11.90
2017,06,12,09,06,12.00
2017,06,12,09,07,12.00
2017,06,12,09,08,12.10
2017,06,12,09,09,12.10
2017,06,12,09,10,12.10
2017,06,12,09,11,12.20
2017,06,12,09,12,12.30
2017,06,12,09,13,12.40
2017,06,12,09,14,12.40
2017,06,12,09,15,12.40
2017,06,12,09,16,12.40
2017,06,12,09,17,12.40
2017,06,12,09,18,12.40
2017,06,12,09,19,12.30
2017,06,12,09,20,12.40
2017,06,12,09,21,12.40
2017,06,12,09,22,12.40
2017,06,12,09,23,12.40
2017,06,12,09,24,12.50
2017,06,12,09,25,12.50
2017,06,12,09,26,12.50
2017,06,12,09,27,12.50
2017,06,12,09,28,12.40
2017,06,12,09,29,12.40
2017,06,12,09,30,12.40
2017,06,12,09,31,12.50
2017,06,12,09,32,12.50
2017,06,12,09,33,12.60
2017,06,12,09,34,12.70
2017,06,12,09,35,12.70
2017,06,12,09,36,12.80
2017,06,12,09,37,12.80
2017,06,12,09,38,12.80
2017,06,12,09,39,12.80
2017,06,12,09,40,12.80
2017,06,12,09,41,12.80
2017,06,12,09,42,12.80
2017,06,12,09,43,12.80
2017,06,12,09,44,12.90
2017,06,12,09,45,12.90
2017,06,12,09,46,13.00
2017,06,12,09,47,13.00
2017,06,12,09,48,13.10
2017,06,12,09,49,13.10
2017,06,12,09,50,13.10
2017,06,12,09,51,13.10
2017,06,12,09,52,13.10
2017,06,12,09,53,13.10
2017,06,12,09,54,13.20
2017,06,12,09,55,13.20
2017,06,12,09,56,13.30
2017,06,12,09,57,13.30
2017,06,12,09,58,13.30
2017,06,12,09,59,13.30
2017,06,12,10,00,13.40
2017,06,12,10,01,13.40
2017,06,12,10,02,13.50
2017,06,12,10,03,13.50
2017,06,12,10,04,13.60
2017,06,12,10,05,13.60
2017,06,12,10,06,13.70
2017,06,12,10,07,13.70
2017,06,12,10,08,13.70
2017,06,12,10,09,13.80
2017,06,12,10,10,13.90
2017,06,12,10,11,13.90
2017,06,12,10,12,14.00
2017,06,12,10,13,14.00
2017,06,12,10,14,14.00
2017,06,12,10,15,14.00
2017,06,12,10,16,14.00
2017,06,12,10,17,14.00
2017,06,12,10,18,14.00
2017,06,12,10,19,14.00
2017,06,12,10,20,14.00
2017,06,12,10,21,14.00
2017,06,12,10,22,14.00
2017,06,12,10,23,13.90
2017,06,12,10,24,13.90
2017,06,12,10,25,13.90
2017,06,12,10,26,14.00
2017,06,12,10,27,14.10
2017,06,12,10,28,14.20
2017,06,12,10,29,14.30
2017,06,12,10,30,14.30
2017,06,12,10,31,14.40
2017,06,12,10,32,14.50
2017,06,12,10,33,14.50
2017,06,12,10,34,14.60
2017,06,12,10,35,14.60
2017,06,12,10,36,14.70
2017,06,12,10,37,14.80
2017,06,12,10,38,14.90
2017,06,12,10,39,15.00
2017,06,12,10,40,15.10
2017,06,12,10,41,15.20
2017,06,12,10,42,15.20
2017,06,12,10,43,15.20
2017,06,12,10,44,15.20
2017,06,12,10,45,15.10
2017,06,12,10,46,15.10
2017,06,12,10,47,15.10
2017,06,12,10,48,15.10
2017,06,12,10,49,15.10
2017,06,12,10,50,15.20
2017,06,12,10,51,15.20
2017,06,12,10,52,15.30
2017,06,12,10,53,15.40
2017,06,12,10,54,15.50
2017,06,12,10,55,15.60
2017,06,12,10,56,15.60
2017,06,12,10,57,15.60
2017,06,12,10,58,15.60
2017,06,12,10,59,15.60
2017,06,12,11,00,15.60
2017,06,12,11,01,15.70
2017,06,12,11,02,15.70
2017,06,12,11,03,15.70
2017,06,12,11,04,15.70
2017,06,12,11,05,15.70
2017,06,12,11,06,15.70
2017,06,12,11,07,15.70
2017,06,12,11,08,15.80
2017,06,12,11,09,15.90
2017,06,12,11,10,16.00
2017,06,12,11,11,16.00
2017,06,12,11,12,16.00
2017,06,12,11,13,16.10
2017,06,12,11,14,16.10
2017,06,12,11,15,16.00
2017,06,12,11,16,16.00
2017,06,12,11,17,15.90
2017,06,12,11,18,15.90
2017,06,12,11,19,16.00
2017,06,12,11,20,16.10
2017,06,12,11,21,16.20
2017,06,12,11,22,16.20
2017,06,12,11,23,16.30
2017,06,12,11,24,16.30
2017,06,12,11,25,16.30
2017,06,12,11,26,16.30
2017,06,12,11,27,16.20
2017,06,12,11,28,16.10
2017,06,12,11,29,16.10
2017,06,12,11,30,16.10
2017,06,12,11,31,16.10
2017,06,12,11,32,16.20
2017,06,12,11,33,16.20
2017,06,12,11,34,16.30
2017,06,12,11,35,16.30
2017,06,12,11,36,16.40
2017,06,12,11,37,16.50
2017,06,12,11,38,16.60
2017,06,12,11,39,16.70
2017,06,12,11,40,16.80
2017,06,12,11,41,16.80
2017,06,12,11,42,16.90
2017,06,12,11,43,16.90
2017,06,12,11,44,16.90
2017,06,12,11,45,16.90
2017,06,12,11,46,16.80
2017,06,12,11,47,16.80
2017,06,12,11,48,16.80
2017,06,12,11,49,16.80
2017,06,12,11,50,16.90
2017,06,12,11,51,16.90
2017,06,12,11,52,17.00
2017,06,12,11,53,17.00
2017,06,12,11,54,17.10
2017,06,12,11,55,17.20
2017,06,12,11,56,17.30
2017,06,12,11,57,17.40
2017,06,12,11,58,17.50
2017,06,12,11,59,17.60
2017,06,12,12,00,17.70
2017,06,12,12,01,17.80
2017,06,12,12,02,17.90
2017,06,12,12,03,17.90
2017,06,12,12,04,17.90
2017,06,12,12,05,17.90
2017,06,12,12,06,17.80
2017,06,12,12,07,17.90
2017,06,12,12,08,17.90
2017,06,12,12,09,18.00
2017,06,12,12,10,18.00
2017,06,12,12,11,18.10
2017,06,12,12,12,18.10
2017,06,12,12,13,18.10
2017,06,12,12,14,18.20
2017,06,12,12,15,18.20
2017,06,12,12,16,18.20
2017,06,12,12,17,18.20
2017,06,12,12,18,18.20
2017,06,12,12,19,18.20
2017,06,12,12,20,18.20
2017,06,12,12,21,18.20
2017,06,12,12,22,18.20
2017,06,12,12,23,18.20
2017,06,12,12,24,18.20
2017,06,12,12,25,18.30
2017,06,12,12,26,18.30
2017,06,12,12,27,18.40
2017,06,12,12,28,18.50
2017,06,12,12,29,18.60
2017,06,12,12,30,18.70
2017,06,12,12,31,18.70
2017,06,12,12,32,18.70
2017,06,12,12,33,18.70
2017,06,12,12,34,18.70
2017,06,12,12,35,18.70
2017,06,12,12,36,18.80
2017,06,12,12,37,18.80
2017,06,12,12,38,18.80
2017,06,12,12,39,18.90
2017,06,12,12,40,19.10
2017,06,12,12,41,19.20
2017,06,12,12,42,19.30
2017,06,12,12,43,19.40
2017,06,12,12,44,19.40
2017,06,12,12,45,19.50
2017,06,12,12,46,19.60
2017,06,12,12,47,19.60
2017,06,12,12,48,19.60
2017,06,12,12,49,19.60
2017,06,12,12,50,19.60
2017,06,12,12,51,19.60
2017,06,12,12,52,19.60
2017,06,12,12,53,19.60
2017,06,12,12,54,19.60
2017,06,12,12,55,19.50
2017,06,12,12,56,19.40
2017,06,12,12,57,19.40
2017,06,12,12,58,19.40
2017,06,12,12,59,19.40
2017,06,12,13,00,19.40
2017,06,12,13,01,19.50
2017,06,12,13,02,19.50
2017,06,12,13,03,19.60
2017,06,12,13,04,19.70
2017,06,12,13,05,19.80
2017,06,12,13,06,19.80
2017,06,12,13,07,19.80
2017,06,12,13,08,19.80
2017,06,12,13,09,19.80
2017,06,12,13,10,19.90
2017,06,12,13,11,19.90
2017,06,12,13,12,20.00
2017,06,12,13,13,20.00
2017,06,12,13,14,20.10
2017,06,12,13,15,20.10
2017,06,12,13,16,20.10
2017,06,12,13,17,20.20
2017,06,12,13,18,20.20
2017,06,12,13,19,20.30
2017,06,12,13,20,20.30
2017,06,12,13,21,20.40
2017,06,12,13,22,20.50
2017,06,12,13,23,20.60
2017,06,12,13,24,20.60
2017,06,12,13,25,20.60
2017,06,12,13,26,20.70
2017,06,12,13,27,20.70
2017,06,12,13,28,20.70
2017,06,12,13,29,20.70
2017,06,12,13,30,20.70
2017,06,12,13,31,20.80
2017,06,12,13,32,20.90
2017,06,12,13,33,21.00
2017,06,12,13,34,21.00
2017,06,12,13,35,21.00
2017,06,12,13,36,21.00
2017,06,12,13,37,21.00
2017,06,12,13,38,21.10
2017,06,12,13,39,21.10
2017,06,12,13,40,21.00
2017,06,12,13,41,20.90
2017,06,12,13,42,20.90
2017,06,12,13,43,20.90
2017,06,12,13,44,21.00
2017,06,12,13,45,20.90
2017,06,12,13,46,20.90
2017,06,12,13,47,21.00
2017,06,12,13,48,21.00
2017,06,12,13,49,21.10
2017,06,12,13,50,21.20
2017,06,12,13,51,21.20
2017,06,12,13,52,21.20
2017,06,12,13,53,21.30
2017,06,12,13,54,21.30
2017,06,12,13,55,21.30
2017,06,12,13,56,21.40
2017,06,12,13,57,21.40
2017,06,12,13,58,21.40
2017,06,12,13,59,21.30
2017,06,12,14,00,21.20
2017,06,12,14,01,21.20
2017,06,12,14,02,21.20
2017,06,12,14,03,21.20
2017,06,12,14,04,21.20
2017,06,12,14,05,21.20
2017,06,12,14,06,21.30
2017,06,12,14,07,21.40
2017,06,12,14,08,21.40
2017,06,12,14,09,21.30
2017,06,12,14,10,21.40
2017,06,12,14,11,21.50
2017,06,12,14,12,21.60
2017,06,12,14,13,21.70
2017,06,12,14,14,21.70
2017,06,12,14,15,21.60
2017,06,12,14,16,21.60
2017,06,12,14,17,21.60
2017,06,12,14,18,21.60
2017,06,12,14,19,21.50
2017,06,12,14,20,21.50
2017,06,12,14,21,21.40
2017,06,12,14,22,21.20
2017,06,12,14,23,21.20
2017,06,12,14,24,21.20
2017,06,12,14,25,21.20
2017,06,12,14,26,21.20
2017,06,12,14,27,21.20
2017,06,12,14,28,21.20
2017,06,12,14,29,21.20
2017,06,12,14,30,21.20
2017,06,12,14,31,21.20
2017,06,12,14,32,21.30
2017,06,12,14,33,21.30
2017,06,12,14,34,21.40
2017,06,12,14,35,21.40
2017,06,12,14,36,21.40
2017,06,12,14,37,21.50
2017,06,12,14,38,21.40
2017,06,12,14,39,21.40
2017,06,12,14,40,21.50
2017,06,12,14,41,21.50
2017,06,12,14,42,21.60
2017,06,12,14,43,21.60
2017,06,12,14,44,21.60
2017,06,12,14,45,21.60
2017,06,12,14,46,21.50
2017,06,12,14,47,21.40
2017,06,12,14,48,21.30
2017,06,12,14,49,21.20
2017,06,12,14,50,21.10
2017,06,12,14,51,21.00
2017,06,12,14,52,21.00
2017,06,12,14,53,21.10
2017,06,12,14,54,21.10
2017,06,12,14,55,21.20
2017,06,12,14,56,21.30
2017,06,12,14,57,21.40
2017,06,12,14,58,21.50
2017,06,12,14,59,21.60
2017,06,12,15,00,21.60
2017,06,12,15,01,21.60
2017,06,12,15,02,21.70
2017,06,12,15,03,21.70
2017,06,12,15,04,21.80
2017,06,12,15,05,21.80
2017,06,12,15,06,21.80
2017,06,12,15,07,21.80
2017,06,12,15,08,21.90
2017,06,12,15,09,21.90
2017,06,12,15,10,22.00
2017,06,12,15,11,22.00
2017,06,12,15,12,22.10
2017,06,12,15,13,22.00
2017,06,12,15,14,21.90
2017,06,12,15,15,21.80
2017,06,12,15,16,21.70
2017,06,12,15,17,21.60
2017,06,12,15,18,21.70
2017,06,12,15,19,21.70
2017,06,12,15,20,21.80
2017,06,12,15,21,21.70
2017,06,12,15,22,21.60
2017,06,12,15,23,21.70
2017,06,12,15,24,21.70
2017,06,12,15,25,21.60
2017,06,12,15,26,21.60
2017,06,12,15,27,21.50
2017,06,12,15,28,21.40
2017,06,12,15,29,21.40
2017,06,12,15,30,21.50
2017,06,12,15,31,21.60
2017,06,12,15,32,21.60
2017,06,12,15,33,21.50
2017,06,12,15,34,21.50
2017,06,12,15,35,21.60
2017,06,12,15,36,21.60
2017,06,12,15,37,21.50
2017,06,12,15,38,21.40
2017,06,12,15,39,21.30
2017,06,12,15,40,21.20
2017,06,12,15,41,21.20
2017,06,12,15,42,21.20
2017,06,12,15,43,21.30
2017,06,12,15,44,21.30
2017,06,12,15,45,21.30
2017,06,12,15,46,21.30
2017,06,12,15,47,21.30
2017,06,12,15,48,21.30
2017,06,12,15,49,21.20
2017,06,12,15,50,21.10
2017,06,12,15,51,21.10
2017,06,12,15,52,21.20
2017,06,12,15,53,21.20
2017,06,12,15,54,21.30
2017,06,12,15,55,21.30
2017,06,12,15,56,21.40
2017,06,12,15,57,21.40
2017,06,12,15,58,21.30
2017,06,12,15,59,21.20
2017,06,12,16,00,21.20
2017,06,12,16,01,21.10
2017,06,12,16,02,21.10
2017,06,12,16,03,21.10
2017,06,12,16,04,21.10
2017,06,12,16,05,21.20
2017,06,12,16,06,21.20
2017,06,12,16,07,21.20
2017,06,12,16,08,21.10
2017,06,12,16,09,21.10
2017,06,12,16,10,21.10
2017,06,12,16,11,21.00
2017,06,12,16,12,20.90
2017,06,12,16,13,20.80
2017,06,12,16,14,20.80
2017,06,12,16,15,20.80
2017,06,12,16,16,20.80
2017,06,12,16,17,20.90
2017,06,12,16,18,20.90
2017,06,12,16,19,20.90
2017,06,12,16,20,20.80
2017,06,12,16,21,20.70
2017,06,12,16,22,20.70
2017,06,12,16,23,20.60
2017,06,12,16,24,20.60
2017,06,12,16,25,20.60
2017,06,12,16,26,20.60
2017,06,12,16,27,20.70
2017,06,12,16,28,20.70
2017,06,12,16,29,20.70
2017,06,12,16,30,20.60
2017,06,12,16,31,20.50
2017,06,12,16,32,20.50
2017,06,12,16,33,20.40
2017,06,12,16,34,20.50
2017,06,12,16,35,20.60
2017,06,12,16,36,20.70
2017,06,12,16,37,20.70
2017,06,12,16,38,20.60
2017,06,12,16,39,20.60
2017,06,12,16,40,20.60
2017,06,12,16,41,20.70
2017,06,12,16,42,20.70
2017,06,12,16,43,20.60
2017,06,12,16,44,20.60
2017,06,12,16,45,20.60
2017,06,12,16,46,20.50
2017,06,12,16,47,20.40
2017,06,12,16,48,20.40
2017,06,12,16,49,20.40
2017,06,12,16,50,20.40
2017,06,12,16,51,20.30
2017,06,12,16,52,20.20
2017,06,12,16,53,20.10
2017,06,12,16,54,20.10
2017,06,12,16,55,20.10
2017,06,12,16,56,20.20
2017,06,12,16,57,20.20
2017,06,12,16,58,20.20
2017,06,12,16,59,20.20
2017,06,12,17,00,20.20
2017,06,12,17,01,20.30
2017,06,12,17,02,20.30
2017,06,12,17,03,20.20
2017,06,12,17,04,20.20
2017,06,12,17,05,20.10
2017,06,12,17,06,20.10
2017,06,12,17,07,20.10
2017,06,12,17,08,20.00
2017,06,12,17,09,20.00
2017,06,12,17,10,20.00
2017,06,12,17,11,20.10
2017,06,12,17,12,20.10
2017,06,12,17,13,20.00
2017,06,12,17,14,19.90
2017,06,12,17,15,19.90
2017,06,12,17,16,19.90
2017,06,12,17,17,19.90
2017,06,12,17,18,19.80
2017,06,12,17,19,19.70
2017,06,12,17,20,19.70
2017,06,12,17,21,19.60
2017,06,12,17,22,19.60
2017,06,12,17,23,19.50
2017,06,12,17,24,19.50
2017,06,12,17,25,19.50
2017,06,12,17,26,19.60
2017,06,12,17,27,19.60
2017,06,12,17,28,19.60
2017,06,12,17,29,19.70
2017,06,12,17,30,19.70